User: anonymous   Login
Location: Unspecified
(0.0000°N, 0.0000°E)
Time: 21:59:05
(UTC+01:00)
Language:

AO-7 - Orbit

View from above orbital plane
View from above orbital plane
View from above satellite
View from above satellite

Ground track
Ground track

The orbit data is extracted from the following two-line orbital elements,

1  7530U 74089B   17344.90966297 -.00000023 +00000-0 +13178-3 0  9999
2  7530 101.6587 310.2772 0012145 341.3845 032.2575 12.53630170970770
Epoch (UTC): 10 December 2017 21:49:54
Eccentricity: 0.0012145
inclination: 101.6587°
perigee height: 1440 km
apogee height: 1459 km
right ascension of ascending node: 310.2772°
argument of perigee: 341.3845°
revolutions per day: 12.53630170
mean anomaly at epoch: 32.2575°
orbit number at epoch: 97077

The dashed part of the orbit path shows where the satellite is in the earth's shadow,  

DLR